Theta_e
334 334 334 333 332 332 332 332 331 331 331 330 330 330 330 331 330 331 331 331 330 331 330 329 330 329 329 329 328 327 328 329 329 328 328 327 326 326 326 325 325 324 324 324 321 318 316 317 319 317 319 328 332 331 332 333 332 329 328 331 329 328
336 336 336 335 334 333 332 332 331 331 331 331 330 330 330 330 330 330 330 331 330 330 330 329 330 330 329 329 329 327 328 328 326 326 327 326 326 325 325 325 324 322 322 324 324 321 318 316 318 319 319 324 330 332 332 332 332 330 330 331 330 329
337 337 337 337 336 335 334 334 333 331 331 330 330 330 330 331 331 331 330 331 331 330 330 330 330 331 330 329 330 328 327 327 324 324 324 324 325 324 323 323 323 321 320 322 323 324 320 317 318 320 320 320 323 329 330 332 332 330 331 330 328 328
337 337 337 337 337 338 337 337 336 335 333 331 330 331 332 332 331 331 331 331 331 331 331 331 330 331 331 330 330 328 327 326 324 324 323 323 325 324 322 321 321 321 320 320 321 324 323 319 320 321 321 321 320 321 325 331 332 331 331 329 328 328
337 337 336 335 336 337 337 337 337 337 336 334 332 333 334 334 332 331 332 332 331 332 331 331 331 331 331 331 330 329 327 326 325 324 322 322 325 324 323 322 322 321 320 319 319 324 325 320 321 321 320 325 327 323 324 331 332 332 332 330 329 329
335 335 335 334 334 336 336 336 336 337 337 336 335 336 335 334 334 333 332 331 331 332 331 331 331 330 330 330 329 328 328 327 325 323 322 323 324 324 324 324 324 324 320 319 319 324 327 322 322 323 321 326 331 327 327 332 332 332 332 330 330 329
333 333 334 333 334 334 333 334 336 336 336 337 337 336 334 334 334 334 333 332 332 332 331 330 330 330 331 330 329 329 329 328 326 324 324 323 324 325 327 327 327 327 323 320 321 323 327 327 326 326 322 325 330 328 328 332 332 332 332 331 331 330
333 332 332 332 333 332 332 333 334 334 334 336 335 333 333 332 333 333 333 333 333 332 330 330 331 331 331 330 328 329 330 330 328 327 327 326 325 327 329 330 329 330 327 324 325 325 327 329 328 327 324 325 329 329 329 331 332 333 332 332 331 331
332 331 331 331 331 332 331 332 333 332 333 334 333 331 331 331 331 333 333 333 333 331 330 331 331 331 330 330 329 329 330 331 330 328 329 328 328 329 330 330 330 330 329 326 327 328 328 328 328 327 325 326 328 329 330 331 332 333 333 332 332 331
332 330 331 331 331 332 331 331 332 331 332 332 331 331 331 331 331 332 333 333 332 331 330 331 331 332 331 331 329 330 330 330 330 330 330 330 329 330 330 329 330 330 329 327 328 328 328 329 328 326 324 326 328 329 329 330 330 332 333 332 332 331
331 330 330 331 331 332 330 330 331 332 332 331 331 332 331 331 332 332 332 332 332 331 331 332 331 332 332 331 330 330 331 331 331 331 330 331 330 330 330 329 329 330 328 327 328 328 328 328 328 327 325 326 327 328 329 329 329 330 332 332 333 332
330 329 330 331 330 330 329 330 330 330 331 330 331 331 330 330 330 331 332 332 331 331 331 332 331 331 332 331 330 331 331 331 331 331 331 331 330 330 330 330 330 329 328 328 328 327 327 327 327 328 327 326 326 325 326 328 329 328 329 331 332 332
329 330 331 329 329 329 330 330 329 329 330 330 330 330 330 330 330 331 331 330 330 331 331 332 331 331 332 331 331 331 330 329 330 330 330 330 330 330 330 329 329 330 329 328 327 325 326 326 326 327 327 327 327 326 326 327 327 328 327 328 330 331
329 330 330 327 327 329 329 328 327 327 328 328 327 327 328 330 330 330 330 331 331 330 330 330 330 331 331 330 330 331 330 329 329 329 329 329 330 331 330 329 329 330 329 327 326 324 324 325 324 326 327 327 327 327 327 326 327 328 327 326 328 330
329 329 328 326 327 328 327 326 327 326 324 325 325 325 326 328 329 329 329 330 331 330 330 329 329 330 330 329 328 329 330 329 329 329 329 329 329 330 330 329 329 329 328 327 326 325 323 323 324 325 326 326 327 327 326 327 328 328 329 328 329 330
325 327 326 327 328 328 327 329 329 326 322 323 325 326 325 325 327 329 329 328 329 329 327 327 328 328 329 329 327 327 329 329 329 329 329 328 328 329 329 330 330 329 328 326 325 323 321 322 324 325 326 326 327 327 327 328 328 328 329 329 329 330
318 321 321 323 326 327 329 329 325 324 324 325 325 326 326 325 325 328 329 328 328 328 326 325 326 326 328 328 326 326 328 329 329 329 329 328 328 329 329 330 330 329 328 326 324 321 319 323 326 325 326 327 327 326 327 327 327 328 328 328 328 329
314 315 315 316 317 320 324 322 320 322 326 326 325 325 325 323 324 324 326 327 328 327 327 327 326 327 328 328 327 325 327 330 329 328 329 329 328 328 328 329 329 328 328 328 325 321 318 323 326 325 326 327 326 326 326 326 327 327 328 328 328 328
313 312 312 312 311 313 315 317 319 322 324 325 325 326 325 324 323 321 321 324 326 326 327 328 327 327 327 327 326 325 326 328 328 327 328 328 328 328 328 328 328 328 329 328 328 324 321 322 323 324 325 326 326 326 326 326 326 327 328 328 328 327
312 311 312 311 311 313 316 319 322 323 323 323 322 323 325 324 322 320 319 320 323 323 324 325 325 326 327 327 326 326 327 327 328 328 327 326 327 327 329 329 328 328 329 328 328 327 326 325 324 325 326 325 325 327 327 326 326 326 326 327 327 327
312 312 312 312 314 316 318 321 322 322 323 322 320 319 320 321 320 320 321 322 324 325 324 323 323 324 326 326 325 326 327 327 327 327 327 327 327 327 328 328 328 328 328 329 328 328 328 327 327 328 327 326 325 326 328 327 327 327 326 327 327 326
312 311 313 315 318 319 319 320 321 320 320 320 321 320 317 317 316 317 320 321 322 324 324 324 323 324 324 324 324 325 325 326 326 326 327 327 327 327 327 327 328 328 328 328 329 328 327 327 328 328 327 326 325 324 325 326 326 327 327 326 327 326
312 311 314 318 321 321 321 321 321 320 320 319 321 320 314 310 310 310 311 313 317 321 321 321 322 323 323 323 323 323 322 323 325 326 326 326 326 326 327 327 328 328 328 328 328 328 328 327 327 327 326 327 326 325 325 325 324 324 324 325 326 326
312 312 316 320 321 321 321 322 322 322 321 321 320 317 310 307 308 307 308 311 317 322 322 321 321 321 322 321 322 322 320 320 324 326 325 326 326 326 326 327 327 328 327 327 327 327 327 327 327 326 326 326 326 326 325 326 325 323 323 323 323 324
311 312 316 319 318 318 320 321 322 322 322 321 319 312 307 309 309 307 307 309 313 318 321 323 321 320 320 321 322 322 321 320 323 325 325 325 325 325 325 325 326 326 326 326 327 327 327 327 327 327 327 326 326 326 326 326 325 324 324 323 322 322
311 312 315 316 314 315 317 316 317 317 315 315 313 309 308 310 308 308 307 307 308 311 315 318 319 319 320 320 322 322 322 321 323 324 324 323 324 324 325 324 325 326 326 326 327 328 327 327 328 327 327 327 326 326 326 325 325 325 326 325 324 324
311 312 313 313 312 312 313 312 311 311 309 308 309 309 309 309 307 308 307 307 307 308 310 313 315 317 320 320 321 322 322 321 322 323 323 323 323 323 324 324 324 324 325 325 326 327 327 327 327 327 327 326 326 325 325 325 324 325 326 326 326 326
312 311 312 313 312 311 310 309 308 308 308 308 309 309 309 308 307 308 308 308 307 307 310 312 312 313 317 320 321 321 321 321 322 322 322 323 323 323 323 322 322 321 321 324 326 326 326 326 326 327 327 326 325 325 325 324 324 324 324 325 325 326
314 311 312 312 311 311 310 309 309 309 310 310 309 308 308 308 307 307 308 307 307 307 308 309 308 307 311 317 320 320 319 320 321 320 319 320 320 321 322 322 322 319 317 321 325 325 325 325 326 326 325 325 325 325 325 324 324 324 323 323 324 325
318 313 311 313 311 311 310 309 312 312 311 311 309 308 308 308 307 308 307 307 308 308 307 307 307 306 306 310 314 318 319 318 317 313 310 310 310 311 313 314 315 313 310 315 322 323 323 323 324 324 324 323 324 324 324 323 323 323 324 323 323 323
325 318 311 312 311 310 310 311 314 315 312 309 308 309 308 308 308 308 308 308 307 307 308 307 307 307 306 305 307 311 314 313 309 307 305 306 306 305 306 306 306 306 305 309 316 319 320 319 320 322 322 322 322 322 322 323 323 323 323 322 322 322
327 322 313 311 311 311 310 312 315 316 314 311 308 309 309 309 308 308 308 308 308 308 308 308 307 307 307 306 306 307 308 307 306 306 306 306 306 306 306 306 306 306 305 306 309 311 311 311 312 315 319 320 320 320 320 321 321 321 321 322 322 321
326 325 317 311 311 311 310 313 316 316 316 313 309 309 309 309 308 309 309 308 308 308 307 308 307 307 307 306 306 306 306 306 306 306 306 306 306 306 306 306 306 306 306 306 306 306 306 306 306 308 311 312 313 313 313 313 311 311 313 315 315 315
326 327 322 313 311 311 310 313 316 317 316 313 309 309 309 309 309 309 309 309 309 308 308 308 308 307 307 307 307 307 306 306 306 306 306 306 306 306 306 306 306 306 306 306 306 306 306 305 305 306 306 307 307 306 306 306 306 305 306 307 307 307
326 328 326 317 311 310 310 313 317 318 317 314 310 309 309 309 309 309 309 309 309 309 309 308 308 308 308 307 307 307 307 306 306 306 306 306 306 306 306 306 306 306 306 305 306 306 306 305 305 305 305 305 306 305 304 304 304 304 304 304 305 305
324 326 327 322 315 313 310 312 318 319 319 317 311 310 310 309 309 309 309 310 310 310 310 309 309 309 308 308 308 307 307 307 307 306 306 306 306 306 306 306 306 306 305 305 305 305 305 305 305 304 304 305 304 304 303 303 303 303 303 303 303 303
322 325 327 323 320 320 316 314 319 320 320 319 313 311 312 312 311 311 312 311 310 310 310 310 310 310 309 309 308 308 308 307 307 307 307 307 306 306 306 306 306 306 305 305 305 305 305 304 304 304 304 304 303 303 303 303 303 303 303 303 302 302
Wind_Speed
18 17 16 14 13 13 13 13 12 12 12 12 11 10 9 9 9 8 7 6 5 5 4 5 4 4 4 6 6 6 8 7 7 7 6 5 4 4 3 3 2 1 2 3 3 2 2 4 7 9 15 20 18 17 14 8 8 9 7 5 5 6
18 17 16 15 14 13 13 13 12 12 12 11 11 10 10 9 9 8 7 6 6 6 5 5 4 3 3 5 7 7 8 9 7 7 7 6 6 6 5 4 3 2 2 3 3 2 2 2 5 8 12 17 17 16 13 7 6 6 7 6 6 6
17 16 17 15 15 14 14 14 13 13 12 12 12 11 11 10 10 10 8 7 8 7 6 5 5 4 4 5 8 8 8 9 8 8 8 8 8 7 6 5 4 4 4 4 4 4 4 3 4 6 8 13 16 16 12 6 4 4 6 6 7 7
16 15 16 15 14 14 13 14 14 14 14 13 13 13 12 11 11 11 10 9 9 8 7 6 6 5 4 5 7 8 8 9 9 9 9 9 9 8 7 6 5 5 4 5 5 5 6 7 5 5 5 8 12 14 11 5 2 4 6 6 8 8
13 13 13 12 12 12 12 13 14 14 14 15 15 14 12 12 13 12 11 10 10 9 8 8 7 6 5 6 7 7 8 9 9 9 8 9 10 9 8 6 6 5 4 5 5 5 8 10 7 6 4 6 6 8 11 5 3 7 7 6 9 9
11 11 11 9 9 10 10 11 12 12 13 14 15 13 11 12 13 13 12 10 10 9 9 9 7 7 6 7 7 7 9 10 10 10 9 9 10 9 8 7 5 4 4 4 5 7 9 9 7 6 6 7 3 4 8 5 5 7 6 6 9 9
11 11 10 9 9 9 8 8 10 10 10 12 12 11 10 10 12 13 12 11 10 10 9 8 7 7 7 8 7 8 10 10 9 9 9 9 8 7 7 6 5 4 3 4 6 7 6 5 7 6 6 7 4 3 4 5 7 7 6 6 8 9
11 10 10 9 9 8 7 8 8 8 8 9 10 9 9 9 9 12 12 10 11 11 8 6 7 7 8 9 8 8 10 9 8 9 9 7 6 6 5 4 4 4 3 4 6 5 3 2 9 9 7 6 3 2 3 9 10 8 8 8 9 8
10 9 8 8 7 6 7 8 7 6 6 7 8 8 8 8 8 10 11 10 11 10 8 6 7 7 9 9 7 8 10 8 8 9 8 6 6 6 4 4 5 5 4 5 5 4 1 2 8 10 8 7 4 3 4 9 10 8 8 9 10 8
8 7 7 7 6 6 6 7 5 5 6 6 6 7 6 6 7 9 10 10 11 9 8 8 9 9 10 9 7 9 9 8 7 8 7 6 7 7 6 6 6 5 6 6 5 3 4 4 6 8 8 7 7 6 6 9 11 10 9 9 10 8
8 6 5 6 5 5 5 6 4 3 4 5 7 8 6 6 7 8 9 10 10 10 10 10 10 11 10 8 8 9 10 9 8 8 7 7 7 7 7 7 6 6 6 7 7 5 8 8 7 6 7 7 8 8 8 8 11 11 9 9 9 7
11 8 7 6 4 4 5 6 5 4 3 4 6 7 7 7 8 9 9 9 10 10 11 10 10 10 9 7 8 9 9 8 7 8 8 8 8 7 8 8 6 7 7 7 7 8 9 10 11 9 8 8 8 8 8 8 10 11 10 9 8 7
14 13 11 8 6 6 6 6 4 3 3 4 4 5 7 8 8 9 10 10 11 12 12 11 10 10 9 8 8 9 8 8 7 7 9 10 10 9 9 10 9 9 8 8 8 10 11 11 13 12 10 10 8 9 9 10 11 12 11 10 8 7
18 17 14 10 10 10 7 6 6 4 3 4 3 3 6 7 7 9 10 11 12 13 12 11 12 11 10 10 10 10 10 8 8 7 9 10 10 11 12 11 12 10 7 7 8 9 12 13 13 13 13 11 9 9 11 12 12 12 12 11 10 7
19 18 14 12 13 11 8 8 10 7 4 5 6 4 4 5 5 6 8 9 10 10 10 10 12 12 11 11 12 12 10 9 8 8 8 9 11 13 14 14 12 10 8 8 10 11 12 12 12 15 14 12 11 11 11 12 13 13 12 11 11 9
20 19 15 15 15 13 12 11 8 5 5 8 7 6 5 5 4 5 5 6 7 7 7 8 10 10 10 11 12 12 11 10 9 9 9 9 11 14 15 15 12 10 9 9 10 10 11 13 15 18 16 13 14 14 13 13 13 13 12 9 11 12
21 19 16 16 15 15 15 12 9 9 8 9 9 6 6 7 7 7 6 6 5 4 4 7 8 9 10 11 12 12 11 11 10 10 10 9 10 13 15 15 13 11 9 8 8 8 11 17 19 20 16 13 15 16 16 16 14 13 12 9 7 11
19 16 16 14 13 15 14 11 11 13 9 8 10 9 8 6 5 6 6 6 7 6 5 6 8 8 10 11 11 12 11 11 10 10 10 9 9 12 14 15 14 12 9 8 8 6 11 18 19 17 14 13 15 16 17 18 16 14 13 11 8 5
18 17 16 13 12 12 12 13 14 14 12 8 10 10 8 7 5 3 3 5 7 7 8 6 6 7 7 9 10 10 11 10 10 10 9 10 10 11 13 15 15 13 10 8 8 7 10 16 16 15 14 13 13 15 18 18 18 18 15 13 10 7
18 17 16 13 13 13 14 17 16 13 12 9 7 8 8 7 6 4 4 6 7 6 6 7 6 6 5 5 5 6 8 8 9 10 10 10 11 11 12 14 15 14 12 10 10 9 10 12 12 12 12 12 12 14 16 16 16 19 19 17 14 12
19 18 16 15 14 14 14 16 15 13 11 8 6 7 7 7 6 5 6 7 9 8 6 6 6 5 5 4 4 4 5 6 7 9 10 10 10 11 12 14 16 15 14 13 12 11 11 11 11 11 10 10 11 12 12 12 12 14 18 19 17 16
19 18 17 15 13 12 12 13 14 14 13 10 9 7 5 6 7 7 8 8 10 11 10 8 6 6 6 5 5 4 3 3 4 6 8 8 9 11 12 13 16 17 16 14 13 12 12 11 11 11 11 10 9 9 9 9 11 13 15 17 17 18
19 18 16 14 13 12 13 14 13 13 12 10 10 7 5 7 8 8 10 10 11 13 12 11 10 10 8 6 5 4 3 2 3 4 6 6 7 8 9 10 12 14 15 13 14 15 14 12 11 11 11 10 8 8 8 8 11 13 16 16 16 16
18 18 17 16 15 14 15 16 14 13 11 9 9 7 6 10 11 11 11 12 13 14 13 14 13 12 10 8 6 4 3 3 2 3 4 4 4 3 3 5 7 10 12 12 13 14 14 13 13 12 10 9 8 7 6 7 8 9 13 14 13 13
18 18 18 18 16 14 15 17 17 15 13 11 11 8 9 13 12 12 13 12 12 13 15 15 14 13 13 11 9 6 5 3 4 5 7 8 7 6 4 3 4 6 8 10 10 10 12 13 13 12 9 7 7 6 6 6 5 6 8 9 9 9
18 18 18 18 16 14 15 15 16 16 15 14 14 12 11 13 12 12 13 12 12 12 13 14 13 14 15 13 10 9 9 8 6 7 8 8 9 9 8 6 6 3 3 6 7 7 8 9 10 10 10 9 7 6 6 5 4 5 6 7 7 6
19 19 19 17 16 16 15 14 14 15 15 16 17 15 12 12 12 11 11 12 13 12 12 12 12 15 16 13 12 11 11 10 8 7 6 6 7 7 6 6 7 5 4 4 5 4 5 6 7 7 8 11 9 6 5 3 3 4 4 5 6 5
20 20 19 17 17 16 15 15 16 16 16 16 15 15 14 12 11 10 11 12 12 12 12 11 11 13 14 15 14 13 12 11 10 8 7 6 4 3 3 3 3 3 4 4 6 6 5 5 5 5 5 7 7 5 4 3 3 3 4 4 3 3
20 21 20 18 18 17 16 17 18 17 17 16 15 15 15 13 12 10 11 12 12 12 11 11 11 10 11 14 15 13 12 11 9 7 6 7 6 4 4 3 3 1 1 3 7 8 8 8 7 6 6 6 6 6 5 4 3 3 4 2 2 3
21 23 22 20 19 18 18 18 17 16 16 17 17 16 15 14 13 11 12 12 11 11 12 12 11 11 10 11 13 13 11 8 7 7 7 7 6 6 5 5 4 3 3 5 6 7 8 9 8 8 8 8 8 8 7 5 5 5 4 4 4 4
24 27 25 23 21 20 20 19 17 15 16 17 17 17 15 14 13 12 12 12 12 12 12 12 12 11 11 11 11 11 9 6 7 11 12 11 10 9 8 7 5 5 5 6 6 5 5 6 7 8 8 8 8 8 7 6 5 6 5 4 4 4
29 31 28 25 24 22 22 20 18 16 16 16 16 16 15 14 14 13 13 12 12 12 11 11 11 11 11 11 11 11 10 9 10 11 11 11 11 11 10 9 9 9 8 7 6 5 3 4 6 8 8 7 7 7 7 6 6 6 7 6 6 6
33 34 31 28 26 24 23 22 20 18 17 16 16 16 15 13 13 12 13 13 13 12 11 11 10 10 10 10 10 11 11 10 10 10 9 9 9 10 10 9 8 8 9 8 7 6 5 5 5 6 6 6 6 6 6 7 7 7 8 9 9 8
33 35 34 31 28 26 24 23 21 19 18 16 16 16 15 13 13 12 12 13 13 12 12 11 10 10 9 9 9 9 9 9 9 8 8 7 7 9 9 8 8 7 7 7 7 6 6 6 5 4 3 2 3 4 4 3 3 3 3 5 6 5
34 33 34 32 30 27 25 24 23 20 18 15 15 16 15 13 12 11 10 11 11 12 11 11 10 10 9 8 8 8 8 8 7 7 6 5 5 7 7 7 7 7 6 7 6 6 6 6 5 4 4 3 3 4 4 4 3 2 2 1 1 2
34 32 33 33 30 26 24 24 24 21 18 16 14 15 14 12 11 10 9 8 8 9 9 9 9 9 9 9 8 7 7 6 6 6 5 4 3 4 5 5 5 6 6 6 6 6 6 6 5 4 4 5 5 5 5 5 5 4 4 4 4 3
33 32 31 30 27 23 22 23 22 20 18 17 15 14 13 12 11 9 9 7 6 5 5 6 7 6 6 7 7 7 6 6 5 5 4 4 3 3 3 3 3 5 5 6 6 6 6 5 5 4 4 5 5 5 5 5 4 4 4 4 4 3
Wind_Direction
168 169 172 174 177 176 176 174 176 179 182 187 184 184 185 186 186 186 189 190 204 212 211 195 182 178 170 178 182 185 188 185 191 196 199 203 204 200 192 182 170 160 127 114 100 89 111 137 130 133 154 157 148 145 136 140 182 188 207 253 287 287
170 172 174 177 182 183 186 184 186 189 193 196 192 194 197 198 199 202 205 207 221 223 224 218 212 209 190 185 178 185 190 183 190 197 202 208 208 206 205 207 208 212 194 165 143 128 115 135 141 137 154 163 159 151 136 136 170 185 222 249 279 288
170 171 171 175 181 186 193 192 194 198 202 203 200 204 207 212 212 213 217 220 228 228 229 230 236 232 207 191 179 187 192 184 192 199 203 210 209 205 210 221 230 234 225 204 172 160 158 141 138 139 154 168 172 165 145 137 153 192 233 250 278 283
168 168 166 169 175 182 190 193 198 201 205 208 208 211 214 221 221 221 224 227 231 229 229 231 239 232 208 193 186 193 195 193 199 202 204 208 207 206 214 223 236 238 231 221 197 176 161 150 130 124 148 167 176 181 172 163 177 240 247 258 280 285
163 162 160 162 165 174 183 187 193 197 203 209 213 215 218 225 226 228 227 231 237 236 235 230 236 235 214 198 194 198 198 202 205 204 207 207 206 210 219 226 235 237 233 227 203 175 164 165 152 127 146 156 164 185 180 188 245 254 256 259 272 282
151 151 152 156 158 168 176 177 182 188 197 206 215 216 214 221 227 230 225 230 239 240 237 227 232 234 212 202 200 202 202 205 205 203 206 206 210 217 227 233 235 240 233 215 198 180 173 179 171 146 160 158 159 175 163 194 242 248 261 257 264 275
142 144 147 154 159 163 168 168 172 179 188 200 212 212 201 208 224 232 227 227 230 232 233 223 226 225 208 209 209 210 209 209 205 201 204 204 209 222 236 242 230 226 223 198 191 179 166 193 195 179 179 160 156 173 169 225 229 242 260 255 267 275
141 144 143 149 158 157 154 156 165 174 180 190 206 211 196 192 210 228 231 224 221 226 225 214 222 220 211 216 214 215 216 212 206 204 211 206 203 220 235 241 225 215 203 176 165 148 109 215 209 200 189 169 163 171 218 235 227 242 252 253 272 281
136 141 139 141 149 147 139 144 161 171 180 195 210 218 201 192 197 211 224 219 218 228 223 207 222 223 214 215 214 218 220 216 213 213 219 210 200 217 220 205 207 198 169 149 131 124 100 247 219 210 185 173 189 176 226 246 241 240 240 252 269 279
137 143 139 136 133 133 126 131 149 164 180 199 214 222 209 204 208 207 215 211 208 218 214 202 212 220 214 208 208 218 220 216 219 220 224 217 203 210 207 195 193 179 152 143 137 164 227 246 237 222 195 185 187 179 217 259 261 246 233 247 263 272
146 154 148 140 125 120 115 121 130 151 183 197 204 216 214 208 219 217 214 209 205 208 208 207 211 217 214 203 207 224 227 219 220 221 226 230 215 206 204 204 195 182 171 158 158 192 226 230 229 232 228 217 207 199 212 246 264 263 255 250 255 268
148 161 165 160 146 122 119 131 131 133 179 207 195 199 204 202 206 214 216 212 214 216 214 215 218 218 213 208 217 232 233 226 230 226 224 227 219 208 205 211 202 193 193 182 182 204 219 218 214 221 229 225 228 229 217 232 260 272 275 260 252 265
149 157 157 156 161 144 136 147 152 132 144 174 185 202 212 202 188 195 211 216 214 214 213 214 221 220 211 213 223 232 235 233 238 233 224 220 210 199 199 208 211 207 203 199 200 207 213 212 209 210 216 215 224 237 227 230 251 265 276 270 258 267
157 159 155 151 156 154 152 159 178 179 142 142 142 177 201 197 188 191 204 215 216 211 207 212 222 222 215 221 227 233 240 237 232 228 228 225 210 199 202 212 222 224 220 215 223 228 224 220 214 207 213 218 217 228 227 218 225 245 263 267 264 266
172 172 166 158 155 158 164 162 171 179 174 147 111 93 143 177 201 202 201 206 213 213 209 214 222 221 221 230 234 232 235 234 228 223 226 228 216 212 214 220 231 240 245 239 241 242 228 219 211 202 210 226 218 208 209 200 199 216 237 254 260 260
186 185 177 167 159 155 155 154 154 143 155 153 122 82 97 128 153 168 179 182 197 214 214 215 222 224 226 232 233 230 228 231 231 224 223 223 218 221 222 222 230 239 242 240 238 234 212 197 197 199 206 224 222 209 205 201 190 195 210 233 252 254
185 184 178 172 166 163 161 162 148 123 129 140 137 132 116 111 113 124 134 140 156 182 199 211 219 228 230 225 225 228 227 225 229 230 231 229 221 226 229 227 229 230 227 222 228 227 193 188 195 200 204 218 227 221 212 210 201 195 198 201 227 246
170 167 166 166 165 168 168 164 151 139 134 116 123 146 153 147 120 105 108 117 127 129 142 183 203 214 222 220 222 228 224 217 222 231 233 231 224 226 230 229 230 230 222 207 213 213 182 187 199 206 212 223 233 229 220 218 218 212 203 195 192 213
157 152 152 152 150 154 146 134 134 142 150 130 113 128 146 161 158 122 115 133 134 127 123 134 163 183 200 211 218 224 222 220 226 229 230 232 228 227 227 226 229 232 228 215 211 207 185 191 205 214 220 226 230 229 225 226 228 225 218 210 203 188
153 149 144 143 141 140 135 130 132 141 150 146 140 148 151 156 167 176 178 165 156 152 149 152 161 159 162 179 193 208 219 231 239 237 235 235 233 233 230 226 227 230 233 233 225 217 203 202 214 219 220 225 226 223 222 222 225 226 224 224 220 204
152 150 148 148 142 136 135 134 139 147 147 145 157 164 163 165 172 172 164 151 149 153 160 172 175 163 158 148 148 180 213 235 242 241 239 234 232 234 234 228 226 228 230 234 233 229 221 218 223 221 221 231 231 224 220 216 213 216 221 224 225 218
155 155 156 151 140 132 136 137 140 147 149 152 154 144 141 162 171 167 165 161 157 155 154 161 161 149 151 146 146 165 189 218 220 225 228 229 232 234 234 228 225 230 230 229 233 235 233 228 226 225 228 236 236 229 227 228 223 219 219 218 220 225
164 163 162 153 150 148 147 148 152 154 155 158 155 140 115 129 139 140 150 157 150 143 139 142 151 154 149 140 154 180 194 201 199 208 213 217 230 235 236 227 222 229 230 229 233 234 235 231 229 229 229 231 232 231 236 244 242 235 231 223 218 227
173 169 165 159 164 166 158 158 163 159 156 154 145 139 120 117 115 111 121 136 139 136 131 128 141 157 155 147 154 175 198 205 184 168 163 160 175 198 217 216 220 228 228 226 228 230 230 230 230 227 222 223 225 227 235 239 237 237 239 234 229 233
181 177 172 170 173 172 166 166 169 164 163 162 151 146 138 122 112 106 108 117 129 138 143 142 143 146 147 149 145 130 129 144 148 137 125 123 123 114 118 152 197 223 228 226 223 221 221 223 228 224 211 203 204 210 218 218 222 229 232 232 231 234
189 184 182 181 178 176 174 173 176 173 170 167 158 150 138 121 111 108 105 107 113 122 139 150 154 148 144 147 143 127 114 110 134 148 135 131 125 114 114 114 117 143 191 208 210 211 209 209 217 218 210 202 192 182 188 196 207 220 224 220 215 221
195 194 191 188 181 179 178 176 176 171 164 160 153 144 133 121 113 111 111 111 108 107 113 121 137 147 147 144 142 134 120 115 136 154 145 144 138 123 123 118 108 98 94 139 171 187 196 196 199 202 204 205 200 173 159 181 203 210 220 215 210 221
199 201 198 191 184 182 178 172 169 166 161 155 147 138 132 128 124 124 117 105 97 96 100 100 111 136 150 152 146 135 131 134 141 147 150 155 154 141 143 142 121 81 68 107 137 146 151 155 162 170 179 193 197 180 166 187 207 224 238 236 230 233
206 207 205 198 189 184 180 172 164 161 157 150 145 140 138 136 133 127 112 100 93 90 93 94 93 104 131 152 154 143 139 145 145 151 173 185 184 180 190 215 242 274 47 121 130 133 131 126 132 140 141 151 160 155 150 148 153 192 217 220 184 139
216 215 209 203 196 188 183 175 164 158 154 152 151 146 143 140 131 120 108 103 102 96 91 90 89 86 94 122 147 154 157 161 155 141 143 156 161 160 168 188 217 227 203 165 143 136 130 125 131 141 145 150 154 156 154 147 149 167 179 174 163 143
221 222 213 206 201 193 187 179 166 160 160 157 156 153 148 142 132 122 114 108 105 103 99 95 95 95 91 96 115 135 148 145 123 113 111 112 113 112 115 119 112 114 141 157 155 155 151 146 151 156 159 160 159 160 161 161 166 174 184 191 185 185
219 222 215 207 204 197 190 182 169 166 170 165 160 158 151 142 134 126 117 110 108 106 105 104 103 102 101 101 104 112 117 111 104 102 98 97 98 95 93 92 90 92 103 120 133 141 151 163 173 176 176 178 177 174 177 189 201 210 219 226 227 227
213 220 217 208 205 202 192 183 175 171 175 172 163 158 153 145 138 128 118 113 111 106 102 103 103 104 105 105 107 109 108 106 103 98 92 91 94 92 86 81 80 80 85 93 98 101 98 101 135 169 178 181 180 176 186 203 215 225 229 233 240 244
203 215 219 210 204 203 195 184 179 176 178 174 164 158 157 152 141 132 122 117 115 110 103 99 98 100 102 104 107 109 109 108 105 100 94 90 92 91 85 79 79 78 80 85 87 90 92 90 98 121 142 146 138 137 149 179 204 220 225 234 247 252
200 208 218 214 205 202 195 185 181 182 183 177 166 162 162 159 150 140 131 123 119 115 109 105 100 96 96 98 101 103 107 109 107 105 100 91 86 83 79 76 79 81 82 85 90 94 99 104 109 113 101 86 93 104 92 74 68 66 64 46 325 322
203 205 215 215 204 199 195 186 183 186 188 183 174 170 169 168 163 152 142 134 124 117 112 111 107 99 96 94 92 93 96 101 105 109 105 99 88 74 75 75 71 75 81 85 90 90 93 103 111 112 104 102 105 102 91 83 77 68 62 57 50 30
207 205 210 206 195 194 193 186 185 190 193 189 183 181 177 172 170 165 156 148 143 138 125 119 114 104 97 94 89 85 85 85 90 94 97 100 100 81 80 77 64 68 73 79 84 83 83 92 96 92 91 98 103 97 91 96 97 85 76 76 74 67